DW9680 Weather Reports


time (UTC)temp
C
wind
direction
speed
KPH
gust
KPH
rain 1hr
cm
rain 24hr
cm
rain mn
cm
humidity
%
barometer
mb
20260503213005 30 42 0.0 11.3 0.00 0.00 0.00 33 1008.6
20260503211601 30 25 0.0 8.0 0.00 0.00 0.00 36 1008.7
20260503204557 29 37 0.0 9.7 0.00 0.00 0.00 41 1009.1
20260503203057 28 359 1.6 11.3 0.00 0.00 0.00 38 1009.2
20260503201552 28 331 4.8 12.9 0.00 0.00 0.00 37 1009.5
20260503200053 28 360 0.0 11.3 0.00 0.00 0.00 44 1009.7
20260503194554 27 309 3.2 11.3 0.00 0.00 0.00 43 1009.9
20260503193043 27 12 0.0 9.7 0.00 0.00 0.00 44 1010.0
20260503191537 27 346 3.2 8.0 0.00 0.00 0.00 45 1010.1
20260503190032 26 256 0.0 9.7 0.00 0.00 0.00 45 1010.3
20260503184528 26 316 3.2 12.9 0.00 0.00 0.00 50 1010.5
20260503183025 25 24 4.8 14.5 0.00 0.00 0.00 47 1010.6
20260503181520 25 347 4.8 11.3 0.00 0.00 0.00 48 1010.7
20260503180016 24 37 1.6 11.3 0.00 0.00 0.00 52 1010.8
20260503174511 23 44 0.0 14.5 0.00 0.00 0.00 55 1010.9
20260503173008 23 27 3.2 12.9 0.00 0.00 0.00 55 1010.9
20260503171503 22 13 8.0 12.9 0.00 0.00 0.00 60 1011.1
20260503110106 11 106 0.0 0.0 0.00 0.00 0.00 92 1011.7
20260503081536 12 106 0.0 0.0 0.00 0.00 0.00 90 1012.3
20260503071532 12 106 3.2 8.0 0.00 0.00 0.00 89 1012.0
20260503054529 16 106 0.0 0.0 0.00 0.00 0.00 83 1012.3
20260503053022 16 106 4.8 8.0 0.00 0.00 0.00 83 1012.3
20260503051521 16 346 0.0 3.2 0.00 0.00 0.00 83 1011.9
20260503050033 16 294 0.0 0.0 0.00 0.00 0.00 82 1012.1
20260503044521 16 294 0.0 0.0 0.00 0.00 0.00 82 1012.0
20260503043020 16 294 0.0 3.2 0.00 0.00 0.00 82 1012.1
20260503041529 16 294 0.0 0.0 0.00 0.00 0.00 82 1012.4
20260503040019 16 294 0.0 0.0 0.00 0.00 0.00 81 1012.2
20260503034519 16 294 0.0 0.0 0.00 0.00 0.00 80 1012.1
20260503033018 16 294 0.0 0.0 0.00 0.00 0.00 80 1011.9
20260503031519 17 294 0.0 0.0 0.00 0.00 0.00 79 1011.9
20260503030022 17 294 0.0 1.6 0.00 0.00 0.00 77 1012.1
20260503024517 17 296 0.0 0.0 0.00 0.00 0.00 76 1012.2
20260503023016 18 296 0.0 4.8 0.00 0.00 0.00 74 1012.4
20260503021521 18 296 1.6 9.7 0.00 0.00 0.00 73 1012.4
20260503020017 19 102 0.0 4.8 0.00 0.00 0.00 73 1012.2
20260503014515 20 100 0.0 0.0 0.00 0.00 0.00 72 1011.4
20260503013014 20 100 0.0 3.2 0.00 0.00 0.00 70 1011.4
20260503011513 20 34 0.0 0.0 0.00 0.00 0.00 70 1011.4
20260503010013 20 34 0.0 0.0 0.00 0.00 0.00 69 1011.2
20260503004513 21 35 0.0 4.8 0.00 0.00 0.00 67 1011.0
20260503003012 21 35 0.0 0.0 0.00 0.00 0.00 64 1010.9
20260503001512 21 35 0.0 0.0 0.00 0.00 0.00 63 1010.9
20260503000008 21 35 0.0 0.0 0.00 0.00 0.00 63 1011.0
20260502234506 20 35 0.0 4.8 0.00 0.00 0.00 63 1011.2
20260502233003 20 35 0.0 6.4 0.00 0.00 0.00 64 1011.4
20260502231601 20 35 1.6 6.4 0.00 0.00 0.00 64 1011.7
20260502230058 20 34 0.0 6.4 0.00 0.00 0.00 65 1012.0
20260502224558 20 34 1.6 9.7 0.00 0.00 0.00 64 1012.1
20260502223052 20 285 0.0 9.7 0.00 0.00 0.00 65 1012.5
20260502221548 19 343 0.0 14.5 0.00 0.00 0.00 66 1012.5
20260502220046 19 273 1.6 11.3 0.00 0.00 0.00 68 1012.8
20260502214542 18 20 0.0 11.3 0.00 0.00 0.00 71 1012.9